星链-5146 (STARLINK-5146 )

导读

STARLINK-5146是美国太空探索技术公司星链计划中的卫星,于2022年10月20日发射升空。它作为星链卫星互联网星座的组成部分,主要服务于全球卫星宽带互联网接入,助力偏远地区网络覆盖,同时为军事通信等领域提供支持,进一步扩展了星链星座的服务规模与覆盖范围。

Basic Information
目录编号:
54073
目录名称:
STARLINK-5146
国际标识:
2022-136Y
轨道中心:
EARTH
卫星名称:
星链-5146
卫星全名:
星链-5146 (STARLINK-5146 )
卫星状态:
在轨 (已飞行1424 天)
发射日期:
2022-10-20 UTC
国别 :
美国 (US)
星等 :
--
This satellite is enrolled in the Space Conjunction Data Service (SCDS) and the current flight risk assessment level is: No High Risk
Orbit Information
数据来源 国际轨道数据 AOE轨道数据
星历时间 2026-09-13T13:52:31+0800
9小时前
查看轨道信息
2026-09-10T22:00:00+0800
3天前
查看轨道信息
半长轴 6840.848km 6840.868km
偏心率 0.0001265 0.0002296
轨道倾角 53.161° 53.159°
近地点辐角 92.737° 118.739°
升交点赤经 211.983° 224.424°
平近点角 267.377° 291.682°
近地点 461.845km 461.16km
远地点 463.577km 464.302km
周期 93.848分钟 93.848分钟
每日圈数 15.343975 15.343908
Detailed Information
固有亮度:
5
最大亮度:
2.5
卫星平台:
Starlink v1.5
覆盖范围:
全球
运营商:
太空探索技术公司
运营商所在国:
美国
制造商(研发单位):
太空探索技术公司
制造商所在国:
美国
使用方式:
暂无
Satellite Introduction
星链(Starlink)计划是由太空探索技术公司(SpaceX)提出的一个巨型低轨卫星互联网星座项目,计划在2019年至2024年间在太空搭建由约1.2万颗卫星组成的“星链”网络,其中1584颗将部署在地球上空550千米处的近地轨道,并从2020年开始工作。该卫星仍在工作。
2D Orbit Map
3D Orbit Map
Orbit Altitude Analysis Chart
Orbit Inclination Analysis Chart
Orbit Comprehensive Analysis Chart
View Comprehensive Chart
Conjunction Data List
Event ID Objects TCA Miss Dist (km) Collision Risk Probability Collision Risk Index (CRI) Action
CDM_260915-234905-407306-504221
2026-09-15T
23:49:09+0000
0.610 km
远距离
7.922457E-5 中风险 0.73
CDM_260915-121305-407306-509821
2026-09-15T
12:13:24+0000
1.090 km
极远距离
5.331571E-6 低风险 0.5
CDM_260915-143405-407306-509821
2026-09-15T
14:34:05+0000
1.098 km
极远距离
5.196881E-6 低风险 0.49
CDM_260915-103905-407306-509821
2026-09-15T
10:39:36+0000
1.604 km
极远距离
1.568666E-6 低风险 0.39
CDM_260914-081705-227605-407321
2026-09-14T
08:17:06+0000
2.682 km
极远距离
1.317234E-6 低风险 0.37
CDM_260914-032705-407306-051321
2026-09-14T
03:27:43+0000
2.965 km
极远距离
1.296556E-6 低风险 0.37
CDM_260915-221505-407306-504221
2026-09-15T
22:15:22+0000
2.541 km
极远距离
1.12306E-6 低风险 0.36
CDM_260915-130005-407306-509821
2026-09-15T
13:00:17+0000
2.004 km
极远距离
8.956516E-7 极低风险 0.34
Miss Distance Evolution Trend with All Objects
Collision Probability Evolution Trend with All Objects